Tracking 21992 objects as of 29-Nov-2020
HD Live streaming from Space Station
objects crossing your sky now

LEMUR 2 DAVEWILSON

Track LEMUR 2 DAVEWILSON now!
10-day predictions
LEMUR 2 DAVEWILSON is classified as:


NORAD ID: 43126
Int'l Code: 2018-004R
Perigee: 487.3 km
Apogee: 500.2 km
Inclination: 97.4 °
Period: 94.3 minutes
Semi major axis: 6864 km
RCS: Unknown
Launch date: January 12, 2018
Source: United States (US)
Launch site: SRIHARIKOTA (SRI)
aabbcc
Your satellite tracking list
Your tracking list is empty




NASA's NSSDC Master Catalog

Two Line Element Set (TLE):
1 43126U 18004R   20334.45301724  .00006491  00000-0  25195-3 0  9992
2 43126  97.4366  45.9394 0009372 178.6757 181.4508 15.26400396160267
Source of the keplerian elements: AFSPC